This is the latest recevied weather packets stored in our database for station/object KC5TIL-3. If no packets are shown the sender has not sent any weather packets the latest 10 day(s).
| Time | Temp. | Humidity | Pressure | Rain* | Wind** | Luminosity | Snow |
|---|---|---|---|---|---|---|---|
| 1787448074 | 37.78° C | 10% | 1009.8 hPa | 0 mm | 2.24 m/s, 148° | - | - |
| 1787447767 | 38.33° C | 10% | 1009.8 hPa | 0 mm | 1.79 m/s, 182° | - | - |
| 1787447465 | 38.33° C | 10% | 1009.8 hPa | 0 mm | 2.68 m/s, 130° | - | - |
| 1787447167 | 38.33° C | 10% | 1009.8 hPa | 0 mm | 2.68 m/s, 118° | - | - |
| 1787446869 | 38.33° C | 10% | 1009.8 hPa | 0 mm | 2.68 m/s, 130° | - | - |
| 1787446567 | 38.33° C | 10% | 1009.8 hPa | 0 mm | 2.24 m/s, 128° | - | - |
| 1787446269 | 38.89° C | 10% | 1009.8 hPa | 0 mm | 2.68 m/s, 125° | - | - |
| 1787445971 | 38.89° C | 10% | 1009.8 hPa | 0 mm | 2.24 m/s, 117° | - | - |
| 1787445670 | 38.89° C | 10% | 1009.8 hPa | 0 mm | 2.68 m/s, 174° | - | - |
| 1787445372 | 38.89° C | 10% | 1009.8 hPa | 0 mm | 2.24 m/s, 128° | - | - |
| 1787445073 | 38.89° C | 10% | 1009.8 hPa | 0 mm | 2.68 m/s, 144° | - | - |
| 1787444772 | 38.89° C | 10% | 1009.8 hPa | 0 mm | 3.58 m/s, 141° | - | - |
| 1787444474 | 38.89° C | 10% | 1009.8 hPa | 0 mm | 4.02 m/s, 115° | - | - |
| 1787444176 | 38.89° C | 10% | 1009.8 hPa | 0 mm | 3.13 m/s, 116° | - | - |
| 1787443875 | 38.89° C | 10% | 1009.8 hPa | 0 mm | 3.58 m/s, 106° | - | - |
| 1787443576 | 38.89° C | 10% | 1009.8 hPa | 0 mm | 4.47 m/s, 126° | - | - |
| 1787443274 | 39.44° C | 10% | 1010.8 hPa | 0 mm | 4.02 m/s, 114° | - | - |
| 1787442972 | 39.44° C | 10% | 1010.8 hPa | 0 mm | 4.47 m/s, 139° | - | - |
| 1787442674 | 39.44° C | 10% | 1010.8 hPa | 0 mm | 3.13 m/s, 116° | - | - |
| 1787442376 | 39.44° C | 10% | 1010.8 hPa | 0 mm | 3.13 m/s, 125° | - | - |
| 1787442075 | 39.44° C | 10% | 1010.8 hPa | 0 mm | 2.68 m/s, 180° | - | - |
| 1787441777 | 39.44° C | 10% | 1010.8 hPa | 0 mm | 3.13 m/s, 155° | - | - |
| 1787441469 | 39.44° C | 10% | 1009.8 hPa | 0 mm | 3.58 m/s, 116° | - | - |
| 1787441168 | 39.44° C | 10% | 1009.8 hPa | 0 mm | 1.79 m/s, 204° | - | - |
| 1787440870 | 39.44° C | 10% | 1009.8 hPa | 0 mm | 3.58 m/s, 109° | - | - |
* Rain latest hour (hover to see other rain measurements)
** Current wind speed in m/s (hover to see current wind gust speed)